FW2976 Weather Reports


time (UTC)temp
C
wind
direction
speed
KPH
gust
KPH
rain 1hr
cm
rain 24hr
cm
rain mn
cm
humidity
%
barometer
mb
20260507180515 15 48 4.8 11.3 0.00 0.00 0.00 19 1011.5
20260507180038 15 67 4.8 11.3 0.00 0.00 0.00 18 1011.5
20260507175515 14 51 3.2 16.1 0.00 0.00 0.00 17 1011.5
20260507175021 14 76 4.8 16.1 0.00 0.00 0.00 22 1011.6
20260507174537 14 64 4.8 14.5 0.00 0.00 0.00 18 1011.5
20260507174019 14 65 6.4 12.9 0.00 0.00 0.00 19 1011.6
20260507173520 13 92 3.2 12.9 0.00 0.00 0.00 20 1011.6
20260507173036 13 17 3.2 12.9 0.00 0.00 0.00 20 1011.7
20260507172519 13 99 6.4 11.3 0.00 0.00 0.00 20 1011.8
20260507172018 13 70 4.8 9.7 0.00 0.00 0.00 20 1011.8
20260507171535 13 58 0.0 11.3 0.00 0.00 0.00 20 1011.8
20260507171018 13 49 4.8 11.3 0.00 0.00 0.00 20 1011.9
20260507170517 12 151 3.2 9.7 0.00 0.00 0.00 22 1011.9
20260507170037 12 147 1.6 9.7 0.00 0.00 0.00 21 1012.2
20260507165519 12 95 4.8 9.7 0.00 0.00 0.00 25 1012.1
20260507165018 12 101 3.2 9.7 0.00 0.00 0.00 24 1012.1
20260507164539 12 90 3.2 9.7 0.00 0.00 0.00 21 1012.1
20260507164019 12 100 1.6 6.4 0.00 0.00 0.00 23 1012.2
20260507163519 12 0 0.0 6.4 0.00 0.00 0.00 24 1012.2
20260507163039 11 104 3.2 6.4 0.00 0.00 0.00 29 1012.2
20260507162518 11 109 1.6 6.4 0.00 0.00 0.00 25 1012.2
20260507162021 10 78 0.0 6.4 0.00 0.00 0.00 26 1012.3
20260507161539 10 73 1.6 6.4 0.00 0.00 0.00 22 1012.3
20260507161019 10 87 1.6 6.4 0.00 0.00 0.00 22 1012.4
20260507160518 10 90 1.6 6.4 0.00 0.00 0.00 21 1012.3
20260507160057 10 65 1.6 6.4 0.00 0.00 0.00 23 1012.4
20260507155521 10 57 1.6 6.4 0.00 0.00 0.00 26 1012.5
20260507155016 10 140 1.6 4.8 0.00 0.00 0.00 26 1012.4
20260507154532 10 0 0.0 4.8 0.00 0.00 0.00 26 1012.4
20260507154020 10 0 1.6 6.4 0.00 0.00 0.00 25 1012.4
20260507153519 10 60 1.6 6.4 0.00 0.00 0.00 24 1012.4
20260507153037 10 61 3.2 6.4 0.00 0.00 0.00 24 1012.4
20260507152515 11 63 1.6 4.8 0.00 0.00 0.00 24 1012.3
20260507152016 11 0 0.0 4.8 0.00 0.00 0.00 23 1012.2
20260507151537 11 58 1.6 9.7 0.00 0.00 0.00 23 1012.2
20260507151015 11 59 1.6 9.7 0.00 0.00 0.00 22 1012.2
20260507150515 11 61 3.2 11.3 0.00 0.00 0.00 21 1012.2
20260507150037 11 360 4.8 14.5 0.00 0.00 0.00 21 1012.1
20260507145517 12 71 4.8 14.5 0.00 0.00 0.00 21 1011.9
20260507145019 12 65 6.4 12.9 0.00 0.00 0.00 22 1011.9
20260507144544 12 69 3.2 9.7 0.00 0.00 0.00 24 1011.9
20260507144018 11 355 1.6 4.8 0.00 0.00 0.00 23 1011.9
20260507143516 11 325 0.0 8.0 0.00 0.00 0.00 22 1011.9
20260507143038 11 0 1.6 8.0 0.00 0.00 0.00 23 1012.0
20260507142516 11 76 3.2 9.7 0.00 0.00 0.00 22 1012.0
20260507142015 11 247 3.2 14.5 0.00 0.00 0.00 21 1012.1
20260507141537 11 216 4.8 14.5 0.00 0.00 0.00 22 1012.2
20260507141021 11 234 0.0 3.2 0.00 0.00 0.00 26 1012.1
20260507140516 10 234 0.0 4.8 0.00 0.00 0.00 25 1012.1
20260507140040 10 0 0.0 4.8 0.00 0.00 0.00 25 1012.1
20260507135518 10 234 1.6 4.8 0.00 0.00 0.00 26 1012.0
20260507135018 9 235 1.6 3.2 0.00 0.00 0.00 26 1012.1
20260507134536 8 235 0.0 11.3 0.00 0.00 0.00 27 1011.9
20260507134019 8 237 1.6 11.3 0.00 0.00 0.00 27 1011.9
20260507133516 8 234 6.4 11.3 0.00 0.00 0.00 26 1011.9
20260507133034 8 237 6.4 11.3 0.00 0.00 0.00 27 1011.9
20260507132516 7 231 6.4 11.3 0.00 0.00 0.00 27 1011.9
20260507132015 7 242 4.8 8.0 0.00 0.00 0.00 28 1011.9
20260507131533 7 237 3.2 6.4 0.00 0.00 0.00 28 1011.7
20260507131019 7 244 1.6 6.4 0.00 0.00 0.00 28 1011.7
20260507130520 7 0 0.0 3.2 0.00 0.00 0.00 29 1011.6
20260507130041 7 0 0.0 1.6 0.00 0.00 0.00 28 1011.5
20260507125521 7 0 0.0 3.2 0.00 0.00 0.00 28 1011.5
20260507125019 7 0 0.0 3.2 0.00 0.00 0.00 28 1011.4
20260507124537 6 276 1.6 6.4 0.00 0.00 0.00 29 1011.3
20260507124019 6 276 3.2 6.4 0.00 0.00 0.00 29 1011.3
20260507123518 6 281 0.0 4.8 0.00 0.00 0.00 31 1011.2
20260507123043 6 282 1.6 6.4 0.00 0.00 0.00 30 1011.1
20260507122518 6 282 1.6 9.7 0.00 0.00 0.00 28 1011.0
20260507122022 6 284 3.2 9.7 0.00 0.00 0.00 27 1011.0
20260507121537 6 279 3.2 9.7 0.00 0.00 0.00 27 1011.0
20260507121016 5 290 6.4 12.9 0.00 0.00 0.00 27 1011.1
20260507120515 5 291 6.4 12.9 0.00 0.00 0.00 28 1011.1
20260507120034 5 282 3.2 6.4 0.00 0.00 0.00 29 1011.0
20260507115516 5 280 3.2 6.4 0.00 0.00 0.00 28 1011.0
20260507115018 4 284 3.2 6.4 0.00 0.00 0.00 29 1011.0
20260507114534 4 281 1.6 4.8 0.00 0.00 0.00 29 1011.0
20260507114019 5 282 0.0 6.4 0.00 0.00 0.00 27 1011.0
20260507113519 5 283 3.2 6.4 0.00 0.00 0.00 26 1010.9
20260507113039 5 283 4.8 6.4 0.00 0.00 0.00 26 1010.8
20260507112518 5 281 4.8 6.4 0.00 0.00 0.00 27 1010.9
20260507112018 5 286 3.2 4.8 0.00 0.00 0.00 26 1010.8
20260507111543 5 287 3.2 6.4 0.00 0.00 0.00 26 1010.8
20260507111016 5 288 3.2 6.4 0.00 0.00 0.00 26 1010.7
20260507110518 5 288 4.8 6.4 0.00 0.00 0.00 27 1010.7
20260507110038 5 285 3.2 6.4 0.00 0.00 0.00 27 1010.6
20260507105515 5 286 3.2 6.4 0.00 0.00 0.00 27 1010.6
20260507105016 5 284 3.2 6.4 0.00 0.00 0.00 27 1010.7
20260507104535 5 277 4.8 6.4 0.00 0.00 0.00 27 1010.6
20260507104020 5 276 3.2 9.7 0.00 0.00 0.00 27 1010.7
20260507103518 5 275 4.8 9.7 0.00 0.00 0.00 27 1010.6
20260507103034 5 288 4.8 11.3 0.00 0.00 0.00 27 1010.6
20260507102518 4 285 6.4 11.3 0.00 0.00 0.00 27 1010.5
20260507102019 4 279 4.8 11.3 0.00 0.00 0.00 28 1010.6
20260507101538 4 281 6.4 9.7 0.00 0.00 0.00 27 1010.5
20260507101023 4 284 4.8 9.7 0.00 0.00 0.00 27 1010.6
20260507100521 4 275 4.8 9.7 0.00 0.00 0.00 27 1010.5
20260507100036 5 284 3.2 6.4 0.00 0.00 0.00 27 1010.6
20260507095516 5 286 3.2 6.4 0.00 0.00 0.00 26 1010.6
20260507095015 5 287 3.2 6.4 0.00 0.00 0.00 26 1010.6
20260507094534 5 288 3.2 8.0 0.00 0.00 0.00 26 1010.6
20260507094015 5 289 4.8 8.0 0.00 0.00 0.00 26 1010.6
20260507093516 5 292 4.8 8.0 0.00 0.00 0.00 27 1010.7
20260507093042 5 288 4.8 8.0 0.00 0.00 0.00 27 1010.6
20260507092517 4 290 4.8 6.4 0.00 0.00 0.00 27 1010.7
20260507092017 4 277 3.2 8.0 0.00 0.00 0.00 27 1010.6
20260507091539 4 290 4.8 8.0 0.00 0.00 0.00 28 1010.8
20260507091019 3 283 3.2 9.7 0.00 0.00 0.00 28 1010.7
20260507090522 3 280 3.2 9.7 0.00 0.00 0.00 29 1010.7
20260507090038 3 0 0.0 4.8 0.00 0.00 0.00 31 1010.6
20260507085519 4 290 1.6 6.4 0.00 0.00 0.00 30 1010.6
20260507085018 4 290 1.6 6.4 0.00 0.00 0.00 28 1010.6
20260507084540 4 286 4.8 6.4 0.00 0.00 0.00 27 1010.6
20260507084019 4 288 1.6 6.4 0.00 0.00 0.00 28 1010.6
20260507083516 4 288 4.8 9.7 0.00 0.00 0.00 27 1010.5
20260507083039 5 283 4.8 9.7 0.00 0.00 0.00 26 1010.5
20260507082516 5 288 3.2 9.7 0.00 0.00 0.00 26 1010.6
20260507082015 5 286 3.2 9.7 0.00 0.00 0.00 26 1010.6
20260507081537 5 286 4.8 9.7 0.00 0.00 0.00 26 1010.6
20260507081016 5 279 4.8 9.7 0.00 0.00 0.00 26 1010.5
20260507080522 5 296 4.8 11.3 0.00 0.00 0.00 26 1010.6
20260507080035 5 284 6.4 11.3 0.00 0.00 0.00 26 1010.5
20260507075515 5 281 3.2 8.0 0.00 0.00 0.00 26 1010.6
20260507075015 5 285 3.2 9.7 0.00 0.00 0.00 26 1010.7
20260507074534 5 284 4.8 9.7 0.00 0.00 0.00 26 1010.7
20260507074016 5 286 6.4 9.7 0.00 0.00 0.00 27 1010.7
20260507073521 4 292 4.8 8.0 0.00 0.00 0.00 27 1010.7
20260507073035 4 278 3.2 6.4 0.00 0.00 0.00 28 1010.8
20260507072518 4 258 3.2 6.4 0.00 0.00 0.00 28 1010.8
20260507072015 4 258 3.2 6.4 0.00 0.00 0.00 28 1010.9
20260507071535 4 259 1.6 6.4 0.00 0.00 0.00 28 1010.9
20260507071016 3 259 3.2 6.4 0.00 0.00 0.00 28 1011.0
20260507070516 4 259 4.8 6.4 0.00 0.00 0.00 28 1011.0
20260507070036 3 265 3.2 6.4 0.00 0.00 0.00 29 1011.0
20260507065515 4 265 4.8 6.4 0.00 0.00 0.00 28 1011.0
20260507065015 4 270 3.2 4.8 0.00 0.00 0.00 28 1010.9
20260507064534 4 271 1.6 6.4 0.00 0.00 0.00 28 1011.0
20260507064016 3 270 3.2 6.4 0.00 0.00 0.00 28 1010.9
20260507063520 4 261 4.8 6.4 0.00 0.00 0.00 29 1010.9
20260507063033 4 276 1.6 4.8 0.00 0.00 0.00 27 1010.9
20260507062519 5 276 1.6 8.0 0.00 0.00 0.00 27 1011.0
20260507062018 5 282 3.2 9.7 0.00 0.00 0.00 26 1011.2
20260507061537 5 287 4.8 12.9 0.00 0.00 0.00 26 1011.2
20260507061018 5 262 6.4 12.9 0.00 0.00 0.00 26 1011.2
20260507060516 5 292 6.4 12.9 0.00 0.00 0.00 27 1011.2
20260507060036 5 281 4.8 9.7 0.00 0.00 0.00 27 1011.3
20260507055517 5 269 4.8 9.7 0.00 0.00 0.00 28 1011.3
20260507055017 5 275 3.2 11.3 0.00 0.00 0.00 28 1011.3
20260507054541 5 281 6.4 11.3 0.00 0.00 0.00 26 1011.4
20260507054020 5 273 4.8 9.7 0.00 0.00 0.00 26 1011.4
20260507053516 5 273 4.8 11.3 0.00 0.00 0.00 26 1011.4
20260507053038 5 281 4.8 11.3 0.00 0.00 0.00 26 1011.3
20260507052519 5 287 4.8 11.3 0.00 0.00 0.00 26 1011.4
20260507052018 5 270 4.8 6.4 0.00 0.00 0.00 27 1011.3
20260507051538 5 277 3.2 6.4 0.00 0.00 0.00 26 1011.4
20260507051016 5 281 3.2 6.4 0.00 0.00 0.00 26 1011.4
20260507050516 5 263 3.2 6.4 0.00 0.00 0.00 27 1011.5
20260507050040 5 261 3.2 6.4 0.00 0.00 0.00 27 1011.5
20260507045519 5 263 4.8 6.4 0.00 0.00 0.00 27 1011.5
20260507045016 5 263 3.2 6.4 0.00 0.00 0.00 26 1011.5
20260507044534 5 263 1.6 6.4 0.00 0.00 0.00 27 1011.5
20260507044015 5 263 1.6 6.4 0.00 0.00 0.00 28 1011.6
20260507043524 5 264 3.2 6.4 0.00 0.00 0.00 27 1011.5
20260507043032 5 263 3.2 6.4 0.00 0.00 0.00 28 1011.6
20260507042520 5 266 3.2 9.7 0.00 0.00 0.00 27 1011.6
20260507042019 5 271 4.8 9.7 0.00 0.00 0.00 27 1011.6
20260507041550 6 306 1.6 4.8 0.00 0.00 0.00 26 1011.6
20260507041018 6 309 0.0 4.8 0.00 0.00 0.00 25 1011.8
20260507040522 6 313 1.6 6.4 0.00 0.00 0.00 24 1011.8
20260507040038 7 333 3.2 6.4 0.00 0.00 0.00 23 1011.8
20260507035519 7 348 3.2 4.8 0.00 0.00 0.00 22 1011.8
20260507035019 7 351 1.6 4.8 0.00 0.00 0.00 21 1011.8
20260507034537 8 355 0.0 6.4 0.00 0.00 0.00 20 1011.9
20260507034017 8 355 1.6 6.4 0.00 0.00 0.00 20 1011.9
20260507033516 8 283 3.2 6.4 0.00 0.00 0.00 20 1011.9
20260507033037 8 265 4.8 6.4 0.00 0.00 0.00 20 1011.8
20260507032519 8 265 0.0 4.8 0.00 0.00 0.00 20 1011.9
20260507032015 8 265 1.6 4.8 0.00 0.00 0.00 19 1011.8
20260507031534 8 265 0.0 1.6 0.00 0.00 0.00 20 1012.1
20260507031016 8 265 0.0 1.6 0.00 0.00 0.00 20 1012.2
20260507030516 8 0 0.0 1.6 0.00 0.00 0.00 21 1012.2
20260507030038 8 0 0.0 1.6 0.00 0.00 0.00 19 1012.3
20260507025520 8 0 0.0 1.6 0.00 0.00 0.00 20 1012.3
20260507025015 8 0 0.0 1.6 0.00 0.00 0.00 20 1012.2
20260507024532 8 0 0.0 1.6 0.00 0.00 0.00 21 1012.3
20260507024021 8 0 0.0 0.0 0.00 0.00 0.00 20 1012.2
20260507023516 8 0 0.0 0.0 0.00 0.00 0.00 19 1012.3
20260507023037 8 0 0.0 0.0 0.00 0.00 0.00 18 1012.4
20260507022519 9 0 0.0 1.6 0.00 0.00 0.00 18 1012.4
20260507022016 9 0 0.0 1.6 0.00 0.00 0.00 18 1012.4
20260507021535 9 0 0.0 1.6 0.00 0.00 0.00 18 1012.4
20260507021016 9 0 0.0 1.6 0.00 0.00 0.00 17 1012.5
20260507020516 9 0 0.0 1.6 0.00 0.00 0.00 17 1012.5
20260507020035 9 0 0.0 0.0 0.00 0.00 0.00 16 1012.4
20260507015515 10 0 0.0 1.6 0.00 0.00 0.00 16 1012.5
20260507015019 10 0 0.0 1.6 0.00 0.00 0.00 16 1012.5
20260507014548 10 0 0.0 4.8 0.00 0.00 0.00 15 1012.5
20260507014016 10 0 0.0 4.8 0.00 0.00 0.00 15 1012.5
20260507013515 10 264 1.6 9.7 0.00 0.00 0.00 15 1012.5
20260507013043 10 0 1.6 9.7 0.00 0.00 0.00 15 1012.5
20260507012520 10 246 1.6 12.9 0.00 0.00 0.00 15 1012.4
20260507012018 10 246 3.2 12.9 0.00 0.00 0.00 14 1012.4
20260507011540 10 234 3.2 12.9 0.00 0.00 0.00 14 1012.5
20260507011016 10 270 3.2 12.9 0.00 0.00 0.00 14 1012.5
20260507010519 10 267 3.2 11.3 0.00 0.00 0.00 14 1012.5
20260507010035 10 238 4.8 14.5 0.00 0.00 0.00 14 1012.4
20260507005518 11 262 3.2 14.5 0.00 0.00 0.00 14 1012.5
20260507005018 11 277 6.4 14.5 0.00 0.00 0.00 12 1012.5
20260507004536 11 225 3.2 12.9 0.00 0.00 0.00 13 1012.5
20260507004016 11 271 3.2 14.5 0.00 0.00 0.00 13 1012.7
20260507003516 11 270 6.4 17.7 0.00 0.00 0.00 13 1012.7
20260507003034 11 214 9.7 17.7 0.00 0.00 0.00 13 1012.7
20260507002516 11 267 9.7 16.1 0.00 0.00 0.00 13 1012.7
20260507002019 11 266 6.4 19.3 0.00 0.00 0.00 12 1012.7
20260507001549 11 229 9.7 19.3 0.00 0.00 0.00 12 1012.7
20260507001018 11 270 8.0 17.7 0.00 0.00 0.00 12 1012.8
20260507000523 11 284 8.0 17.7 0.00 0.00 0.00 13 1012.9
20260507000037 11 261 8.0 17.7 0.00 0.00 0.00 12 1012.8
20260506235515 11 223 8.0 20.9 0.00 0.00 0.00 13 1013.0
20260506235016 11 262 9.7 20.9 0.00 0.00 0.00 12 1013.0
20260506234536 11 252 6.4 17.7 0.00 0.00 0.00 12 1013.0
20260506234019 11 260 6.4 17.7 0.00 0.00 0.00 12 1013.0
20260506233516 11 238 4.8 12.9 0.00 0.00 0.00 12 1013.0
20260506233043 11 0 4.8 22.5 0.00 0.00 0.00 13 1013.1
20260506232522 11 340 4.8 22.5 0.00 0.00 0.00 12 1013.3
20260506232015 11 244 8.0 22.5 0.00 0.00 0.00 12 1013.2
20260506231541 11 284 9.7 22.5 0.00 0.00 0.00 12 1013.4
20260506231019 11 282 6.4 20.9 0.00 0.00 0.00 14 1013.5
20260506230515 11 277 11.3 25.7 0.00 0.00 0.00 12 1013.6
20260506230034 11 261 9.7 25.7 0.00 0.00 0.00 11 1013.6
20260506225521 11 247 4.8 20.9 0.00 0.00 0.00 13 1013.7
20260506225020 11 237 9.7 27.4 0.00 0.00 0.00 13 1013.8
20260506224537 11 272 6.4 27.4 0.00 0.00 0.00 12 1013.9
20260506224016 11 298 6.4 20.9 0.00 0.00 0.00 12 1013.8
20260506223518 11 267 11.3 24.1 0.00 0.00 0.00 12 1013.9
20260506223038 11 250 9.7 25.7 0.00 0.00 0.00 13 1014.0
20260506222517 12 232 11.3 25.7 0.00 0.00 0.00 13 1014.0
20260506222016 11 273 4.8 22.5 0.00 0.00 0.00 15 1014.0
20260506221537 11 268 12.9 22.5 0.00 0.00 0.00 14 1014.1
20260506221019 11 230 11.3 19.3 0.00 0.00 0.00 13 1014.0
20260506220519 11 268 6.4 19.3 0.00 0.00 0.00 16 1014.0
20260506220036 11 213 9.7 19.3 0.00 0.00 0.00 16 1014.2
20260506215517 11 242 9.7 29.0 0.00 0.00 0.00 16 1014.3
20260506215015 11 275 9.7 29.0 0.00 0.00 0.00 15 1014.4
20260506214532 11 305 11.3 29.0 0.00 0.00 0.00 15 1014.6
20260506214016 11 269 14.5 25.7 0.00 0.00 0.00 14 1014.6
20260506213518 11 273 16.1 24.1 0.00 0.00 0.00 15 1014.7
20260506213036 11 263 11.3 27.4 0.00 0.00 0.00 15 1014.8
20260506212518 11 282 14.5 33.8 0.00 0.00 0.00 13 1014.9
20260506212018 11 241 16.1 33.8 0.00 0.00 0.00 15 1015.0
20260506211531 11 304 6.4 22.5 0.00 0.00 0.00 14 1015.1
20260506211018 11 304 6.4 22.5 0.00 0.00 0.00 15 1015.1
20260506210517 10 328 9.7 25.7 0.00 0.00 0.00 14 1015.1
20260506210040 10 286 8.0 25.7 0.00 0.00 0.00 15 1015.3
20260506205519 10 310 8.0 27.4 0.00 0.00 0.00 15 1015.2
20260506205018 10 253 14.5 27.4 0.00 0.00 0.00 15 1015.5
20260506204536 11 281 8.0 22.5 0.00 0.00 0.00 15 1015.5
20260506204018 10 250 6.4 27.4 0.00 0.00 0.00 14 1015.5
20260506203518 10 299 6.4 27.4 0.00 0.00 0.00 17 1015.6
20260506203042 10 286 11.3 24.1 0.00 0.00 0.00 15 1015.7
20260506202520 10 51 4.8 24.1 0.00 0.00 0.00 19 1015.6
20260506202020 10 292 9.7 20.9 0.00 0.00 0.00 16 1015.8
20260506201534 10 271 8.0 32.2 0.00 0.00 0.00 16 1015.7
20260506201018 10 303 8.0 32.2 0.00 0.00 0.00 15 1015.9
20260506200518 11 318 11.3 24.1 0.00 0.00 0.00 14 1016.0
20260506200042 11 262 4.8 17.7 0.00 0.00 0.00 15 1016.0
20260506195518 10 254 3.2 22.5 0.00 0.00 0.00 19 1016.1
20260506195018 10 252 11.3 25.7 0.00 0.00 0.00 17 1016.1
20260506194539 10 288 6.4 25.7 0.00 0.00 0.00 20 1016.1
20260506194018 10 277 11.3 25.7 0.00 0.00 0.00 18 1016.2
20260506193520 10 271 8.0 24.1 0.00 0.00 0.00 18 1016.2
20260506193036 10 301 11.3 24.1 0.00 0.00 0.00 19 1016.3
20260506192519 9 277 8.0 22.5 0.00 0.00 0.00 18 1016.4
20260506192019 9 212 4.8 20.9 0.00 0.00 0.00 19 1016.4
20260506191535 9 338 11.3 20.9 0.00 0.00 0.00 17 1016.7
20260506191019 9 105 3.2 19.3 0.00 0.00 0.00 22 1016.7
20260506190519 9 244 9.7 20.9 0.00 0.00 0.00 18 1017.0
20260506190038 10 257 6.4 24.1 0.00 0.00 0.00 19 1017.1
20260506185518 9 98 6.4 24.1 0.00 0.00 0.00 17 1017.1
20260506185020 9 306 9.7 22.5 0.00 0.00 0.00 17 1017.3
20260506184536 8 56 6.4 27.4 0.00 0.00 0.00 18 1017.3
20260506184019 8 56 8.0 27.4 0.00 0.00 0.00 18 1017.4
20260506183519 9 247 6.4 17.7 0.00 0.00 0.00 20 1017.4
20260506183037 8 265 4.8 19.3 0.00 0.00 0.00 19 1017.4
20260506182518 8 64 6.4 20.9 0.00 0.00 0.00 18 1017.5
20260506182018 8 79 6.4 20.9 0.00 0.00 0.00 18 1017.6
20260506181537 8 297 9.7 20.9 0.00 0.00 0.00 19 1017.6
20260506181018 8 247 6.4 20.9 0.00 0.00 0.00 19 1017.7